Location: Ferchesar
(52.6477°N, 12.4298°E)
Time: 14:38:55
(UTC+01:00)

AO-73 - Pass Details

Date: 31 October 2021
Orbit: 581 x 660 km, 97.6° (Epoch: 04 December)

Event Time Altitude Azimuth Distance (km) Brightness Sun altitude
Rises 03:52:25 0° 24° (NNE) 2,839 ? -29.5°
Reaches altitude 10° 03:55:01 10° 41° (NE) 1,943 ? -29.1°
Maximum altitude 03:58:16 21° 92° (E) 1,360 ? -28.6°
Drops below altitude 10° 04:01:32 10° 142° (SE) 1,963 ? -28.1°
Sets 04:04:10 0° 158° (SSE) 2,878 ? -27.7°
